Somerville, NJ

12:54 PM EST on December 11, 2019 (GMT -0500)
Somerset

Weather History for KSMQ - November, 2019

Change the Weather History Date:

Thursday, November 14, 2019

  Actual Average Record
Temperature  
Mean Temperature 31 °F -  
Max Temperature 45 °F 49 °F 72 °F (1955)
Min Temperature 17 °F 32 °F 14 °F (1986)
Degree Days  
Heating Degree Days 34    
Moisture  
Dew Point 19 °F    
Average Humidity 66    
Maximum Humidity 92    
Minimum Humidity 35    
Precipitation  
Precipitation 0.00 in - - ()
Sea Level Pressure  
Sea Level Pressure 30.37 in    
Wind  
Wind Speed 2 mph (WNW)    
Max Wind Speed 7 mph    
Max Gust Speed -    
Visibility 10 miles    
Events      
Averages and records for this station are not official NWS values.
T = Trace of Precipitation, MM = Missing Value Source: NWS Daily Summary

Daily Weather History Graph

Daily Weather History Graph

Search for Another Location

Airport or City:

Astronomy

Nov. 14, 2019 Rise Set
Actual Time 6:43 AM EST 4:41 PM EST
Civil Twilight 6:14 AM EST 5:11 PM EST
Nautical Twilight 5:41 AM EST 5:44 PM EST
Astronomical Twilight 5:09 AM EST 6:16 PM EST
Moon 6:25 PM EST (11/14) 8:37 AM EST (11/14)
Length of Visible Light 10h 56m
Length of Day
9h 58m
Waning Gibbous, 95% of the Moon is Illuminated
Nov 14
Waning Gibbous
Nov 19
Last Quarter
Nov 26
New
Dec 4
First Quarter
Dec 12
Full

Hourly Weather History & Observations

Time (EST) Temp. Windchill Dew Point Humidity Pressure Visibility Wind Dir Wind Speed Gust Speed Precip Events Conditions
12:53 AM 21.0 °F - 16.0 °F 81% 30.45 in 10.0 mi Calm Calm - N/A   Clear
1:53 AM 19.9 °F - 17.1 °F 89% 30.44 in 10.0 mi Calm Calm - N/A   Clear
2:53 AM 19.9 °F 14.9 °F 16.0 °F 85% 30.43 in 10.0 mi WNW 3.5 mph - N/A   Clear
4:53 AM 19.0 °F - 15.1 °F 85% 30.42 in 10.0 mi Calm Calm - N/A   Clear
5:53 AM 18.0 °F - 15.1 °F 88% 30.44 in 10.0 mi Calm Calm - N/A   Clear
6:53 AM 17.1 °F 11.7 °F 15.1 °F 92% 30.45 in 10.0 mi NNW 3.5 mph - N/A   Clear
7:53 AM 21.0 °F 16.2 °F 17.1 °F 85% 30.45 in 10.0 mi NW 3.5 mph - N/A   Clear
8:53 AM 27.0 °F 23.0 °F 19.0 °F 72% 30.46 in 10.0 mi NNW 3.5 mph - N/A   Clear
9:53 AM 30.9 °F - 15.1 °F 52% 30.45 in 10.0 mi Calm Calm - N/A   Clear
10:53 AM 34.0 °F - 16.0 °F 48% 30.42 in 10.0 mi Calm Calm - N/A   Clear
11:53 AM 39.0 °F 35.7 °F 19.0 °F 45% 30.38 in 10.0 mi Variable 4.6 mph - N/A   Clear
12:53 PM 45.0 °F 41.2 °F 21.9 °F 40% 30.36 in 10.0 mi Variable 6.9 mph - N/A   Clear
1:53 PM 43.0 °F 41.3 °F 21.0 °F 42% 30.33 in 10.0 mi Variable 3.5 mph - N/A   Clear
2:53 PM 43.0 °F 41.3 °F 21.9 °F 43% 30.32 in 10.0 mi South 3.5 mph - N/A   Clear
3:53 PM 43.0 °F 39.5 °F 17.1 °F 35% 30.32 in 10.0 mi SSW 5.8 mph - N/A   Clear
4:53 PM 41.0 °F 39.0 °F 15.1 °F 35% 30.32 in 10.0 mi Variable 3.5 mph - N/A   Clear
5:53 PM 34.0 °F - 19.9 °F 56% 30.31 in 10.0 mi Calm Calm - N/A   Clear
6:53 PM 33.1 °F - 21.0 °F 61% 30.31 in 10.0 mi Calm Calm - N/A   Clear
7:53 PM 32.0 °F - 21.9 °F 66% 30.30 in 10.0 mi Calm Calm - N/A   Clear
8:53 PM 32.0 °F - 25.0 °F 75% 30.31 in 10.0 mi Calm Calm - N/A   Clear
9:53 PM 32.0 °F - 24.1 °F 73% 30.30 in 10.0 mi Calm Calm - N/A   Mostly Cloudy
10:53 PM 28.9 °F - 23.0 °F 78% 30.30 in 10.0 mi Calm Calm - N/A   Partly Cloudy
11:53 PM 28.0 °F - 24.1 °F 85% 30.29 in 10.0 mi Calm Calm - N/A   Clear